Location: Anuling
(14.1239°N, 120.8922°E)
Time: 07:51:34
(UTC+00:00)

ISS - Visible Passes

Search period start: 08 March 2026 00:00
Search period end: 18 March 2026 00:00
Orbit: 416 x 427 km, 51.6° (Epoch: 7 March)

Date Brightness Start Highest point End Pass type
(mag) Time Alt. Az. Time Alt. Az. Time Alt. Az.
8 Mar -1.2 11:36:24 10° W 11:38:50 18° NW 11:40:23 14° NNW visible
8 Mar -3.2 21:29:37 12° WNW 21:32:29 38° SW 21:35:36 10° SSE visible
9 Mar -2.3 10:48:38 10° WSW 10:51:49 37° NW 10:54:59 10° NNE visible
9 Mar -3.8 20:45:43 78° SE 20:45:43 78° SE 20:48:50 10° SE visible
